CAPE
0 0 0 0 0 0 0 0 5 0 18 15 22 72 59 45 48 42 28 31 11 8
2 0 0 0 0 0 0 0 0 0 0 3 14 16 21 39 36 37 33 19 7 10
1 1 0 0 0 0 0 0 0 2 0 0 4 15 23 12 18 29 26 17 5 6
2 1 1 0 0 0 0 0 0 0 3 2 0 2 8 8 9 13 9 6 1 1
4 4 2 0 0 0 0 0 0 0 0 0 0 0 0 0 0 1 0 1 6 0
0 0 1 3 2 0 0 0 0 0 0 0 0 0 0 0 0 0 0 0 0 0
0 0 0 1 3 2 0 0 0 0 0 0 0 0 0 0 0 0 0 0 0 0
0 0 0 0 0 0 0 0 0 0 0 0 0 0 0 0 0 0 0 0 0 0
0 0 0 0 0 0 0 0 0 0 0 0 0 0 0 0 0 0 0 0 0 0
0 5 10 2 1 0 0 0 0 0 0 0 0 0 0 0 0 0 0 0 0 0
1 0 0 10 28 31 39 35 29 23 10 6 4 0 0 0 0 0 0 0 0 0
1 0 21 1 29 45 26 33 37 39 18 6 23 10 0 0 0 0 0 0 0 0
0 2 1 2 1 0 3 8 9 1 0 0 0 0 0 0 0 0 0 0 0 0
0 0 1 2 2 4 3 0 0 1 0 0 0 0 0 1 0 0 0 0 0 0
CIN
-1 0 0 0 0 0 0 0 -81 0 -76 -101 -129 -72 -110 -149 -144 -171 -166 -133 -72 -102
-10 0 0 0 0 0 0 0 0 -10 -20 -111 -121 -107 -123 -117 -138 -121 -149 -113 -81 -124
-19 -16 0 0 0 0 0 0 0 -95 -21 -49 -109 -117 -121 -136 -136 -128 -140 -128 -130 -148
-10 -16 -10 0 0 0 0 0 0 -10 -85 -58 0 -73 -121 -103 -139 -142 -142 -146 -138 -130
-13 -7 -10 0 0 0 0 0 0 0 0 0 0 0 0 0 0 -142 -53 -136 -142 0
0 -1 -3 -5 -6 0 0 0 0 0 0 0 0 0 0 0 0 0 0 0 0 0
0 0 -1 -1 -2 -6 0 0 0 0 0 0 0 0 0 0 0 0 0 0 0 0
0 0 0 0 -1 0 0 0 0 0 0 0 0 0 0 0 0 0 0 0 0 0
0 -7 0 0 0 0 0 0 0 0 0 0 0 0 0 0 0 0 0 0 0 0
0 -388 -409 -120 -123 -24 0 0 0 0 0 0 0 0 0 0 0 0 0 0 0 0
-117 0 0 -355 -367 -379 -344 -342 -331 -333 -319 -158 -176 0 0 0 0 0 0 0 0 0
0 0 -290 -288 -292 -331 -315 -322 -334 -288 -296 -325 -322 -316 0 0 0 0 0 0 0 0
0 0 0 0 0 0 -282 -273 -235 -187 0 0 0 0 0 0 0 0 0 0 0 0
0 0 0 0 0 0 0 0 0 0 0 0 0 0 0 0 0 0 0 0 0 0
Wind_Speed
15 10 10 12 10 10 9 8 7 7 8 8 7 8 6 6 6 8 7 6 12 8
11 14 13 15 12 9 8 7 7 6 8 8 8 7 7 7 9 9 10 14 12 8
12 12 10 13 16 15 14 11 10 9 10 10 10 10 10 7 7 10 9 10 13 12
13 13 13 12 14 15 15 15 15 16 14 15 15 14 13 13 12 13 13 13 13 14
13 14 14 13 14 14 14 16 16 15 17 16 16 16 18 18 16 16 17 16 14 15
15 17 16 15 15 15 17 14 16 17 17 18 18 18 18 17 17 18 18 16 15 16
16 16 17 16 15 16 14 17 16 16 16 17 18 19 19 19 20 20 18 16 16 18
16 16 15 17 16 14 15 16 17 17 17 18 18 15 20 20 19 19 19 18 18 19
15 17 17 16 17 17 17 17 16 17 18 18 15 19 20 18 17 18 19 19 19 18
13 15 17 17 18 18 18 16 18 18 16 18 18 17 19 20 17 16 18 18 16 14
7 11 12 15 17 17 15 17 17 17 18 16 15 14 17 18 17 18 18 16 16 15
13 15 8 10 14 16 14 14 15 13 13 15 17 14 18 13 13 15 16 1 3 4
12 14 11 9 12 6 9 13 10 7 2 7 4 3 2 9 6 6 5 3 4 4
12 12 13 11 10 12 11 3 6 8 9 10 11 8 10 2 3 5 6 5 4 5
Wind_Direction
182 181 183 188 189 193 194 194 192 181 168 174 172 197 178 174 170 165 166 187 226 218
177 180 187 187 194 199 198 198 197 189 183 183 186 188 186 183 179 183 186 201 219 215
186 188 193 187 194 197 200 196 193 192 196 201 204 200 198 196 191 192 197 201 207 214
195 197 205 193 193 199 203 200 194 195 194 198 204 207 209 213 206 208 212 214 209 212
197 200 202 200 196 197 202 204 199 199 205 204 205 206 208 213 213 213 217 217 216 221
203 208 210 208 207 205 208 202 206 207 207 210 213 216 216 216 218 222 220 216 211 219
200 204 212 215 216 210 206 210 206 208 209 212 216 220 222 220 221 223 226 221 222 227
198 197 202 209 213 214 213 214 218 218 220 220 220 218 219 220 222 225 229 229 229 230
188 194 199 202 207 212 217 219 219 220 221 223 226 225 216 221 225 227 228 230 231 232
193 194 195 197 203 211 213 212 220 226 224 227 229 218 215 213 227 230 232 232 232 232
314 233 204 197 207 210 207 212 217 219 223 227 235 211 215 210 222 231 234 233 231 229
352 345 245 218 221 216 209 214 219 222 219 220 233 211 225 205 223 233 238 103 4 245
10 4 356 360 347 273 225 225 225 220 88 46 179 51 209 200 220 195 149 100 55 47
23 24 6 357 28 7 343 23 80 82 42 32 19 9 6 314 177 176 129 115 91 70